When you browse on this site, cookies collect data to enhance your experience and personalize the content and advertising you see.
Visit our Privacy Policy to learn more. By continuing to use the site, you agree to this use of cookies and data.
  • în România
  • Lista ţărilor
  • Pe 7 zile
  • Temperatura apei
  • Hartă satelitară
  • Meteo pe hartă
  • Widget-uri
  • user-avatar
    Intrare

    Meteo pe oră la Domashkiny Vershiny

    Astăzi, 21 Mai, Marţi

    Timp Temperatura Precipitaţii Vânt Presiune Umiditate
    00:00 +5°C° 0 mm 2 m/s 756 mmHg 73%
    01:00 +4°C° 0 mm 3 m/s 756 mmHg 75%
    02:00 +3°C° 0 mm 3 m/s 756 mmHg 76%
    03:00 +4°C° 0 mm 3 m/s 756 mmHg 82%
    04:00 +5°C° 0 mm 3 m/s 757 mmHg 79%
    05:00 +7°C° 0 mm 3 m/s 757 mmHg 76%
    06:00 +7°C° 0 mm 4 m/s 757 mmHg 73%
    07:00 +8°C° 0.1 mm 4 m/s 757 mmHg 65%
    08:00 +10°C° 0.1 mm 5 m/s 757 mmHg 57%
    09:00 +12°C° 0 mm 5 m/s 757 mmHg 49%
    10:00 +13°C° 0 mm 5 m/s 757 mmHg 48%
    11:00 +13°C° 0 mm 5 m/s 757 mmHg 46%
    12:00 +14°C° 0 mm 5 m/s 757 mmHg 44%
    13:00 +14°C° 0 mm 5 m/s 757 mmHg 44%
    14:00 +14°C° 0 mm 5 m/s 757 mmHg 44%
    15:00 +14°C° 0 mm 4 m/s 757 mmHg 43%
    16:00 +14°C° 0 mm 4 m/s 757 mmHg 47%
    17:00 +14°C° 0 mm 3 m/s 757 mmHg 51%
    18:00 +14°C° 0 mm 2 m/s 757 mmHg 55%
    19:00 +13°C° 0 mm 2 m/s 757 mmHg 57%
    20:00 +12°C° 0 mm 2 m/s 757 mmHg 60%
    21:00 +9°C° 0 mm 2 m/s 757 mmHg 63%
    22:00 +9°C° 0 mm 3 m/s 757 mmHg 63%
    23:00 +9°C° 0 mm 3 m/s 757 mmHg 64%

    Mâine, 22 Mai, Miercuri

    Timp Temperatura Precipitaţii Vânt Presiune Umiditate
    00:00 +8°C° 0 mm 3 m/s 757 mmHg 64%
    01:00 +8°C° 0 mm 3 m/s 757 mmHg 66%
    02:00 +8°C° 0 mm 3 m/s 757 mmHg 67%
    03:00 +7°C° 0 mm 3 m/s 757 mmHg 68%
    04:00 +8°C° 0 mm 3 m/s 757 mmHg 68%
    05:00 +10°C° 0 mm 3 m/s 757 mmHg 67%
    06:00 +11°C° 0 mm 3 m/s 756 mmHg 67%
    07:00 +12°C° 0.2 mm 2 m/s 756 mmHg 67%
    08:00 +13°C° 0.2 mm 2 m/s 756 mmHg 68%
    09:00 +13°C° 0.2 mm 2 m/s 756 mmHg 69%
    10:00 +13°C° 1.7 mm 2 m/s 756 mmHg 75%
    11:00 +12°C° 1.7 mm 2 m/s 755 mmHg 82%
    12:00 +11°C° 1.7 mm 3 m/s 755 mmHg 89%
    13:00 +11°C° 0.6 mm 3 m/s 755 mmHg 86%
    14:00 +12°C° 0.6 mm 3 m/s 754 mmHg 84%
    15:00 +13°C° 0.6 mm 3 m/s 754 mmHg 82%
    16:00 +15°C° 0.7 mm 2 m/s 753 mmHg 84%
    17:00 +15°C° 0.7 mm 2 m/s 753 mmHg 86%
    18:00 +15°C° 0.7 mm 1 m/s 753 mmHg 88%
    19:00 +15°C° 0.3 mm 1 m/s 753 mmHg 88%
    20:00 +15°C° 0.3 mm 2 m/s 753 mmHg 89%
    21:00 +14°C° 0.3 mm 2 m/s 753 mmHg 90%
    22:00 +13°C° 0 mm 3 m/s 752 mmHg 88%
    23:00 +12°C° 0 mm 3 m/s 752 mmHg 86%

    Poimâine, 23 Mai, Joi

    Timp Temperatura Precipitaţii Vânt Presiune Umiditate
    00:00 +12°C° 0 mm 4 m/s 752 mmHg 84%
    01:00 +12°C° 0 mm 4 m/s 752 mmHg 84%
    02:00 +12°C° 0 mm 4 m/s 751 mmHg 84%
    03:00 +12°C° 0 mm 4 m/s 751 mmHg 84%
    04:00 +12°C° 0 mm 4 m/s 751 mmHg 81%
    05:00 +13°C° 0 mm 4 m/s 751 mmHg 78%
    06:00 +14°C° 0 mm 4 m/s 751 mmHg 74%
    07:00 +15°C° 0 mm 5 m/s 751 mmHg 68%
    08:00 +17°C° 0 mm 6 m/s 750 mmHg 62%
    09:00 +19°C° 0 mm 6 m/s 750 mmHg 56%
    10:00 +20°C° 0 mm 7 m/s 750 mmHg 52%
    11:00 +21°C° 0 mm 7 m/s 749 mmHg 47%
    12:00 +22°C° 0 mm 7 m/s 749 mmHg 42%
    13:00 +22°C° 0 mm 7 m/s 749 mmHg 42%
    14:00 +22°C° 0 mm 7 m/s 748 mmHg 43%
    15:00 +22°C° 0 mm 7 m/s 748 mmHg 43%
    16:00 +22°C° 0 mm 6 m/s 748 mmHg 47%
    17:00 +21°C° 0 mm 5 m/s 747 mmHg 51%
    18:00 +20°C° 0 mm 5 m/s 747 mmHg 55%
    19:00 +18°C° 0 mm 4 m/s 746 mmHg 60%
    20:00 +17°C° 0 mm 4 m/s 746 mmHg 65%
    21:00 +15°C° 0 mm 4 m/s 746 mmHg 70%
    22:00 +15°C° 0 mm 4 m/s 746 mmHg 74%
    23:00 +14°C° 0 mm 5 m/s 746 mmHg 78%

    24 Mai, Vineri

    Timp Temperatura Precipitaţii Vânt Presiune Umiditate
    00:00 +14°C° 0 mm 5 m/s 745 mmHg 82%
    01:00 +14°C° 0.1 mm 5 m/s 745 mmHg 85%
    02:00 +14°C° 0.1 mm 4 m/s 745 mmHg 88%
    03:00 +13°C° 0.1 mm 4 m/s 745 mmHg 91%
    04:00 +13°C° 1.1 mm 5 m/s 745 mmHg 91%
    05:00 +12°C° 1.1 mm 5 m/s 746 mmHg 91%
    06:00 +12°C° 1.1 mm 5 m/s 746 mmHg 91%
    07:00 +11°C° 0.2 mm 6 m/s 747 mmHg 85%
    08:00 +13°C° 0.2 mm 6 m/s 747 mmHg 78%
    09:00 +13°C° 0.2 mm 6 m/s 748 mmHg 72%
    10:00 +13°C° 0 mm 6 m/s 748 mmHg 66%
    11:00 +14°C° 0 mm 6 m/s 749 mmHg 60%
    12:00 +15°C° 0 mm 6 m/s 749 mmHg 54%
    13:00 +15°C° 0 mm 6 m/s 750 mmHg 54%
    14:00 +15°C° 0 mm 6 m/s 750 mmHg 53%
    15:00 +15°C° 0 mm 6 m/s 750 mmHg 53%
    16:00 +14°C° 0 mm 5 m/s 751 mmHg 56%
    17:00 +14°C° 0 mm 5 m/s 751 mmHg 58%
    18:00 +13°C° 0 mm 4 m/s 752 mmHg 61%
    19:00 +12°C° 0 mm 4 m/s 752 mmHg 63%
    20:00 +10°C° 0 mm 3 m/s 753 mmHg 66%
    21:00 +9°C° 0 mm 3 m/s 754 mmHg 69%
    22:00 +8°C° 0 mm 3 m/s 754 mmHg 69%
    23:00 +7°C° 0 mm 3 m/s 754 mmHg 70%

    25 Mai, Sâmbătă

    Timp Temperatura Precipitaţii Vânt Presiune Umiditate
    00:00 +7°C° 0 mm 2 m/s 755 mmHg 70%
    01:00 +6°C° 0 mm 2 m/s 755 mmHg 70%
    02:00 +6°C° 0 mm 2 m/s 755 mmHg 71%
    03:00 +7°C° 0 mm 1 m/s 756 mmHg 71%
    04:00 +8°C° 0 mm 1 m/s 756 mmHg 68%
    05:00 +9°C° 0 mm 1 m/s 756 mmHg 65%
    06:00 +10°C° 0 mm 1 m/s 757 mmHg 62%
    07:00 +10°C° 0 mm 2 m/s 757 mmHg 56%
    08:00 +12°C° 0 mm 2 m/s 757 mmHg 49%
    09:00 +14°C° 0 mm 2 m/s 757 mmHg 43%
    10:00 +14°C° 0 mm 2 m/s 757 mmHg 42%
    11:00 +15°C° 0 mm 2 m/s 757 mmHg 41%
    12:00 +16°C° 0 mm 2 m/s 757 mmHg 39%
    13:00 +16°C° 0 mm 2 m/s 757 mmHg 39%
    14:00 +17°C° 0 mm 2 m/s 756 mmHg 38%
    15:00 +17°C° 0 mm 2 m/s 756 mmHg 37%
    16:00 +17°C° 0 mm 2 m/s 756 mmHg 42%
    17:00 +17°C° 0 mm 2 m/s 756 mmHg 46%
    18:00 +16°C° 0 mm 2 m/s 756 mmHg 50%
    19:00 +14°C° 0 mm 3 m/s 756 mmHg 53%
    20:00 +12°C° 0 mm 3 m/s 756 mmHg 57%
    21:00 +10°C° 0 mm 3 m/s 756 mmHg 60%
    22:00 +10°C° 0 mm 3 m/s 756 mmHg 61%
    23:00 +10°C° 0 mm 4 m/s 756 mmHg 62%

    26 Mai, Duminică

    Timp Temperatura Precipitaţii Vânt Presiune Umiditate
    00:00 +8°C° 0 mm 4 m/s 756 mmHg 63%
    01:00 +8°C° 0 mm 4 m/s 756 mmHg 63%
    02:00 +8°C° 0 mm 4 m/s 756 mmHg 64%
    03:00 +8°C° 0 mm 5 m/s 756 mmHg 64%
    04:00 +8°C° 0 mm 5 m/s 755 mmHg 63%
    05:00 +9°C° 0 mm 5 m/s 755 mmHg 63%
    06:00 +10°C° 0 mm 6 m/s 755 mmHg 62%
    07:00 +13°C° 0 mm 6 m/s 754 mmHg 58%
    08:00 +14°C° 0 mm 7 m/s 754 mmHg 55%
    09:00 +16°C° 0 mm 7 m/s 754 mmHg 51%
    10:00 +17°C° 0 mm 7 m/s 753 mmHg 50%
    11:00 +18°C° 0 mm 7 m/s 753 mmHg 49%
    12:00 +18°C° 0 mm 7 m/s 753 mmHg 48%
    13:00 +17°C° 0.3 mm 7 m/s 752 mmHg 54%
    14:00 +17°C° 0.3 mm 6 m/s 752 mmHg 61%
    15:00 +16°C° 0.3 mm 6 m/s 751 mmHg 68%
    16:00 +16°C° 0.1 mm 6 m/s 750 mmHg 67%
    17:00 +16°C° 0.1 mm 7 m/s 750 mmHg 66%
    18:00 +16°C° 0.1 mm 7 m/s 749 mmHg 65%
    19:00 +16°C° 0.1 mm 7 m/s 749 mmHg 66%
    20:00 +16°C° 0.1 mm 7 m/s 748 mmHg 67%
    21:00 +16°C° 0.1 mm 7 m/s 748 mmHg 67%
    22:00 +16°C° 0.2 mm 7 m/s 747 mmHg 70%
    23:00 +16°C° 0.2 mm 7 m/s 747 mmHg 73%
    Arată mai mult